This demonstration page uses our WeatherBlox Daily Observations layout. Learn more.

Left ArrowRight Arrow

44.31136, -96.79839

Hourly Observations for September 19, 2021

Temp ( °F °C ) Dew Point ( °F °C ) Humidity (%) Winds ( mph kmh ) Pressure ( in mb ) Visibility ( mi km ) Precip ( " mm )
12:56 am 00:56 Clear 73 22.8 64 17.8 74 74 S 16 26 29.90 1013 10 16 0.00 0.00
1:56 am 01:56 Clear 73 22.8 63 17.2 71 71 S 17 28 29.90 1012 10 16 0.00 0.00
2:56 am 02:56 Clear 73 22.8 62 16.7 69 69 S 16 26 29.87 1012 10 16 0.00 0.00
3:56 am 03:56 Clear 72 22.2 61 16.1 68 68 S 16 26 29.87 1011 10 16 0.00 0.00
4:56 am 04:56 Clear 71 21.7 61 16.1 71 71 S 18 30 29.85 1011 10 16 0.00 0.00
5:56 am 05:56 Clear 70 21 N/A N/A S 18 30 29.84 1011 10 16 0.00 0.00
6:56 am 06:56 Clear 70 21.1 62 16.7 76 76 S 21 33 29.83 1010 10 16 0.00 0.00
7:56 am 07:56 Sunny 70 21.1 62 16.7 76 76 S 16 26 29.85 1011 10 16 0.00 0.00
8:56 am 08:56 Sunny 71 21.7 62 16.7 73 73 S 14 22 29.85 1011 10 16 0.00 0.00
9:46 am 09:46 Mostly Sunny 73 23 63 17 69 69 S 17 28 29.76 1008 10 16 0.00 0.00
9:56 am 09:56 Mostly Sunny 74 23.3 63 17.2 69 69 S 18 30 29.84 1011 10 16 0.00 0.00
10:56 am 10:56 Sunny 78 25.6 63 17.2 60 60 SSW 21 33 29.82 1010 10 16 0.00 0.00
11:56 am 11:56 Sunny 80 26.7 63 17.2 56 56 S 24 39 29.78 1008 10 16 0.00 0.00
12:56 pm 12:56 Sunny 82 27.8 63 17.2 53 53 S 23 37 29.75 1008 10 16 0.00 0.00
1:56 pm 13:56 Sunny 82 27.8 63 17.2 53 53 S 21 33 29.73 1007 10 16 0.00 0.00
2:56 pm 14:56 Sunny 84 28.9 62 16.7 48 48 S 23 37 29.70 1006 10 16 0.00 0.00
3:56 pm 15:56 Sunny 84 28.9 61 16.1 46 46 S 29 46 29.69 1005 10 16 0.00 0.00
4:56 pm 16:56 Sunny 85 29.4 61 16.1 45 45 S 28 44 29.67 1005 10 16 0.00 0.00
5:56 pm 17:56 Sunny 83 28.3 62 16.7 49 49 S 18 30 29.66 1005 10 16 0.00 0.00
6:56 pm 18:56 Sunny 81 27.2 63 17.2 54 54 S 12 19 29.68 1005 10 16 0.00 0.00
7:56 pm 19:56 Clear 79 26.1 62 16.7 56 56 SSE 16 26 29.67 1005 10 16 0.00 0.00
8:56 pm 20:56 Clear 79 26.1 62 16.7 56 56 SSE 16 26 29.67 1005 10 16 0.00 0.00
9:56 pm 21:56 Mostly Clear 78 25.6 64 17.8 62 62 S 20 31 29.67 1005 10 16 0.00 0.00
10:56 pm 22:56 Clear 77 25 64 17.8 64 64 S 20 31 29.67 1005 10 16 0.00 0.00
11:56 pm 23:56 Clear 76 24.4 64 17.8 67 67 SSE 17 28 29.65 1004 10 16 0.00 0.00

Powered by AerisWeather